Weather History for Nagpur Sonegaon, India

Change the Weather History Date:

Monday, April 29, 2013

  Actual Average Record
Temperature  
Mean Temperature 95 °F -  
Max Temperature 113 °F 108 °F - ()
Min Temperature 77 °F 82 °F - ()
Cooling Degree Days 30    
Growing Degree Days 45 (Base 50)    
Moisture  
Dew Point 53 °F    
Average Humidity 20    
Maximum Humidity 41    
Minimum Humidity 7    
Precipitation  
Precipitation 0.00 in 0.02 in - ()
Sea Level Pressure  
Sea Level Pressure 29.68 in    
Wind  
Wind Speed 2 mph ()    
Max Wind Speed 7 mph    
Max Gust Speed -    
Visibility 3.0 miles    
Events      
T = Trace of Precipitation, MM = Missing Value Source: Averaged Metar Reports

Daily Weather History Graph

Daily Weather History Graph

Search for Another Location

Airport:

Trip Planner

Search our weather history database for the weather conditions in past years. The results will help you decide how hot, cold, wet, or windy it might be!

Date:

Astronomy

Apr. 29, 2013 Rise Set
Actual Time 5:44 AM IST 6:37 PM IST
Civil Twilight 5:21 AM IST 7:01 PM IST
Nautical Twilight 4:54 AM IST 7:28 PM IST
Astronomical Twilight 4:26 AM IST 7:56 PM IST
Moon 10:26 PM IST (4/29) 8:47 AM IST (4/29)
Length of Visible Light 13h 39m
Length of Day
12h 53m
Waning Gibbous, 84% of the Moon is Illuminated
Apr 29
Waning Gibbous
May 2
Last Quarter
May 10
New
May 18
First Quarter
May 25
Full

Hourly Weather History & Observations

Time (IST) Temp. Heat Index Dew Point Humidity Pressure Visibility Wind Dir Wind Speed Gust Speed Precip Events Conditions
12:10 AM 95.0 °F - 51.8 °F 23% 29.71 in 3.1 mi West 4.6 mph - N/A   Haze
1:10 AM 89.6 °F - 51.8 °F 27% 29.68 in 3.1 mi NW 2.3 mph - N/A   Haze
2:30 AM 81 °F - 60 °F 39% 29.62 in 2 mi Calm Calm - -   Haze
3:10 AM 87.8 °F 85.7 °F 53.6 °F 31% 29.65 in 3.1 mi Calm Calm - N/A   Haze
4:10 AM 84.2 °F 82.8 °F 53.6 °F 35% 29.65 in 3.1 mi Calm Calm - N/A   Haze
5:10 AM 89.6 °F - 51.8 °F 27% 29.68 in 3.1 mi North 2.3 mph - N/A   Haze
5:30 AM 81 °F - 61 °F 41% 29.65 in 2 mi Calm Calm - -   Haze
6:10 AM 84.2 °F - 51.8 °F 33% 29.71 in 3.1 mi Calm Calm - N/A   Haze
6:40 AM 87.8 °F 86.1 °F 55.4 °F 33% 29.74 in 3.1 mi Calm Calm - N/A   Haze
7:10 AM 91.4 °F 89.9 °F 57.2 °F 31% 29.74 in 3.1 mi Calm Calm - N/A   Haze
7:40 AM 93.2 °F 91.9 °F 57.2 °F 30% 29.74 in 3.1 mi ENE 2.3 mph - N/A   Haze
8:10 AM 96.8 °F 95.8 °F 57.2 °F 27% 29.74 in 3.1 mi NE 4.6 mph - N/A   Haze
8:30 AM 96 °F - 56 °F 17% 29.68 in 2 mi NE 3.5 mph - -   Haze
9:10 AM 100.4 °F 99.7 °F 57.2 °F 24% 29.77 in 3.1 mi East 3.5 mph - N/A   Haze
9:40 AM 102.2 °F 101.4 °F 57.2 °F 22% 29.77 in 3.1 mi ENE 6.9 mph - N/A   Haze
10:10 AM 104.0 °F 103.4 °F 57.2 °F 21% 29.77 in 3.1 mi NNE 6.9 mph - N/A   Haze
11:10 AM 107.6 °F 107.5 °F 57.2 °F 19% 29.74 in 3.1 mi Calm Calm - N/A   Haze
11:30 AM 105 °F - 56 °F 12% 29.65 in 2 mi East 6.9 mph - -   Haze
11:40 AM 109.4 °F 109.4 °F 57.2 °F 18% 29.74 in 3.1 mi ENE 6.9 mph - N/A   Haze
12:10 PM 111.2 °F 109.6 °F 53.6 °F 15% 29.74 in 3.1 mi ENE 4.6 mph - N/A   Haze
12:40 PM 113.0 °F - 51.8 °F 13% 29.71 in 3.7 mi NNE 3.5 mph - N/A   Unknown
1:10 PM 113.0 °F - 51.8 °F 13% 29.71 in 3.7 mi NNE 3.5 mph - N/A   Unknown
1:40 PM 116.6 °F - 50.0 °F 11% 29.68 in 3.7 mi South 2.3 mph - N/A   Partly Cloudy
2:10 PM 116.6 °F - 48.2 °F 11% 29.68 in 3.7 mi NW 3.5 mph - N/A   Partly Cloudy
2:30 PM 112 °F - 51 °F 7% 29.56 in 2 mi NW 4.6 mph - -   Scattered Clouds
3:10 PM 116.6 °F - 50.0 °F 11% 29.65 in 3.7 mi NW 3.5 mph - N/A   Partly Cloudy
4:10 PM 116.6 °F - 50.0 °F 11% 29.62 in 3.7 mi WNW 4.6 mph - N/A   Scattered Clouds
5:10 PM 114.8 °F - 50.0 °F 12% 29.62 in 3.7 mi SSE 3.5 mph - N/A   Scattered Clouds
5:30 PM 109 °F - 55 °F 10% 29.53 in 2 mi NNE 2.3 mph - -   Scattered Clouds
6:10 PM 113.0 °F - 50.0 °F 13% 29.62 in 3.7 mi NNE 2.3 mph - N/A   Scattered Clouds
7:10 PM 105.8 °F - 50.0 °F 15% 29.62 in 3.1 mi ESE 2.3 mph - N/A   Scattered Clouds
8:10 PM 102.2 °F - 50.0 °F 17% 29.68 in 3.1 mi Calm Calm - N/A   Haze
8:30 PM 94 °F - 55 °F 18% 29.62 in 2 mi SE 3.5 mph - -   Haze
8:40 PM 104.0 °F - 48.2 °F 15% 29.68 in 3.1 mi SE 3.5 mph - N/A   Haze
9:10 PM 102.2 °F - 50.0 °F 17% 29.68 in 3.1 mi SE 2.3 mph - N/A   Haze
9:40 PM 102.2 °F - 48.2 °F 16% 29.71 in 3.1 mi ESE 3.5 mph - N/A   Haze
10:10 PM 100.4 °F - 50.0 °F 18% 29.71 in 3.1 mi Calm Calm - N/A   Haze
10:40 PM 100.4 °F - 50.0 °F 18% 29.71 in 3.1 mi Calm Calm - N/A   Haze
11:10 PM 98.6 °F - 50.0 °F 19% 29.71 in 3.1 mi Calm Calm - N/A   Haze
11:30 PM 90 °F - 59 °F 25% 29.65 in 2 mi NW 6.9 mph - -   Haze